When you browse on this site, cookies collect data to enhance your experience and personalize the content and advertising you see.
Visit our Privacy Policy to learn more. By continuing to use the site, you agree to this use of cookies and data.
  • In Hungary
  • List of Countries
  • For 7 days
  • Water Temperature
  • Weather Map
  • News
  • Weather Widgets
  • user-avatar
    Login

    Hourly Weather Alibag

    Today, 15 December, Sunday

    Time Temperature Precipitation Wind Pressure Humidity
    00:00 +24°C° 0 mm 3 mps 760 mmHg 69%
    01:00 +24°C° 0 mm 3 mps 760 mmHg 68%
    02:00 +23°C° 0 mm 4 mps 760 mmHg 68%
    03:00 +22°C° 0 mm 4 mps 760 mmHg 68%
    04:00 +22°C° 0 mm 4 mps 760 mmHg 69%
    05:00 +21°C° 0 mm 4 mps 760 mmHg 69%
    06:00 +22°C° 0 mm 4 mps 760 mmHg 66%
    07:00 +24°C° 0 mm 3 mps 761 mmHg 64%
    08:00 +25°C° 0 mm 3 mps 761 mmHg 61%
    09:00 +27°C° 0 mm 3 mps 761 mmHg 54%
    10:00 +30°C° 0 mm 3 mps 760 mmHg 47%
    11:00 +32°C° 0 mm 2 mps 760 mmHg 40%
    12:00 +33°C° 0 mm 3 mps 759 mmHg 41%
    13:00 +33°C° 0 mm 4 mps 759 mmHg 41%
    14:00 +33°C° 0 mm 5 mps 758 mmHg 42%
    15:00 +32°C° 0 mm 5 mps 758 mmHg 49%
    16:00 +30°C° 0 mm 5 mps 758 mmHg 55%
    17:00 +28°C° 0 mm 5 mps 758 mmHg 62%
    18:00 +28°C° 0 mm 4 mps 758 mmHg 66%
    19:00 +27°C° 0 mm 4 mps 759 mmHg 70%
    20:00 +26°C° 0 mm 4 mps 760 mmHg 73%
    21:00 +26°C° 0 mm 4 mps 760 mmHg 73%
    22:00 +26°C° 0 mm 4 mps 760 mmHg 73%
    23:00 +25°C° 0 mm 4 mps 760 mmHg 72%

    Tomorrow, 16 December, Monday

    Time Temperature Precipitation Wind Pressure Humidity
    00:00 +25°C° 0 mm 3 mps 759 mmHg 72%
    01:00 +25°C° 0 mm 3 mps 759 mmHg 71%
    02:00 +24°C° 0 mm 3 mps 759 mmHg 71%
    03:00 +24°C° 0 mm 3 mps 759 mmHg 69%
    04:00 +24°C° 0 mm 3 mps 759 mmHg 68%
    05:00 +22°C° 0 mm 3 mps 759 mmHg 67%
    06:00 +24°C° 0 mm 3 mps 759 mmHg 64%
    07:00 +25°C° 0 mm 2 mps 760 mmHg 61%
    08:00 +26°C° 0 mm 2 mps 761 mmHg 57%
    09:00 +28°C° 0 mm 2 mps 760 mmHg 51%
    10:00 +31°C° 0 mm 2 mps 760 mmHg 45%
    11:00 +33°C° 0 mm 1 mps 760 mmHg 39%
    12:00 +34°C° 0 mm 2 mps 759 mmHg 39%
    13:00 +34°C° 0 mm 3 mps 759 mmHg 40%
    14:00 +34°C° 0 mm 4 mps 758 mmHg 41%
    15:00 +32°C° 0 mm 4 mps 758 mmHg 47%
    16:00 +30°C° 0 mm 4 mps 758 mmHg 53%
    17:00 +29°C° 0 mm 4 mps 758 mmHg 60%
    18:00 +28°C° 0 mm 4 mps 758 mmHg 65%
    19:00 +27°C° 0 mm 4 mps 759 mmHg 70%
    20:00 +26°C° 0 mm 4 mps 760 mmHg 75%
    21:00 +26°C° 0 mm 4 mps 760 mmHg 75%
    22:00 +26°C° 0 mm 3 mps 759 mmHg 75%
    23:00 +25°C° 0 mm 3 mps 759 mmHg 75%

    Day after tomorrow, 17 December, Tuesday

    Time Temperature Precipitation Wind Pressure Humidity
    00:00 +25°C° 0 mm 3 mps 759 mmHg 74%
    01:00 +25°C° 0 mm 2 mps 759 mmHg 74%
    02:00 +24°C° 0 mm 2 mps 759 mmHg 73%
    03:00 +24°C° 0 mm 2 mps 759 mmHg 71%
    04:00 +24°C° 0 mm 2 mps 759 mmHg 69%
    05:00 +24°C° 0 mm 2 mps 759 mmHg 67%
    06:00 +25°C° 0 mm 2 mps 760 mmHg 63%
    07:00 +26°C° 0 mm 2 mps 760 mmHg 59%
    08:00 +26°C° 0 mm 2 mps 761 mmHg 56%
    09:00 +29°C° 0 mm 2 mps 761 mmHg 50%
    10:00 +31°C° 0 mm 1 mps 761 mmHg 44%
    11:00 +33°C° 0 mm 1 mps 761 mmHg 38%
    12:00 +35°C° 0 mm 2 mps 760 mmHg 37%
    13:00 +35°C° 0 mm 2 mps 759 mmHg 36%
    14:00 +35°C° 0 mm 3 mps 759 mmHg 36%
    15:00 +34°C° 0 mm 3 mps 759 mmHg 43%
    16:00 +31°C° 0 mm 3 mps 759 mmHg 50%
    17:00 +29°C° 0 mm 3 mps 758 mmHg 57%
    18:00 +28°C° 0 mm 3 mps 759 mmHg 61%
    19:00 +27°C° 0 mm 3 mps 760 mmHg 64%
    20:00 +26°C° 0 mm 2 mps 760 mmHg 68%
    21:00 +26°C° 0 mm 2 mps 760 mmHg 68%
    22:00 +26°C° 0 mm 2 mps 760 mmHg 69%
    23:00 +26°C° 0 mm 2 mps 760 mmHg 69%

    18 December, Wednesday

    Time Temperature Precipitation Wind Pressure Humidity
    00:00 +25°C° 0 mm 2 mps 760 mmHg 68%
    01:00 +25°C° 0 mm 2 mps 760 mmHg 67%
    02:00 +25°C° 0 mm 2 mps 759 mmHg 65%
    03:00 +25°C° 0 mm 2 mps 759 mmHg 64%
    04:00 +24°C° 0 mm 2 mps 759 mmHg 62%
    05:00 +24°C° 0 mm 2 mps 759 mmHg 60%
    06:00 +25°C° 0 mm 2 mps 760 mmHg 58%
    07:00 +26°C° 0 mm 2 mps 761 mmHg 56%
    08:00 +27°C° 0 mm 2 mps 761 mmHg 55%
    09:00 +29°C° 0 mm 2 mps 761 mmHg 49%
    10:00 +31°C° 0 mm 2 mps 761 mmHg 44%
    11:00 +35°C° 0 mm 2 mps 761 mmHg 38%
    12:00 +35°C° 0 mm 2 mps 760 mmHg 37%
    13:00 +35°C° 0 mm 2 mps 760 mmHg 36%
    14:00 +36°C° 0 mm 3 mps 759 mmHg 35%
    15:00 +34°C° 0 mm 3 mps 759 mmHg 42%
    16:00 +33°C° 0 mm 3 mps 758 mmHg 48%
    17:00 +30°C° 0 mm 3 mps 758 mmHg 55%
    18:00 +29°C° 0 mm 3 mps 759 mmHg 60%
    19:00 +28°C° 0 mm 3 mps 759 mmHg 64%
    20:00 +27°C° 0 mm 3 mps 760 mmHg 69%
    21:00 +27°C° 0 mm 3 mps 760 mmHg 70%
    22:00 +26°C° 0 mm 3 mps 760 mmHg 71%
    23:00 +26°C° 0 mm 3 mps 760 mmHg 72%

    19 December, Thursday

    Time Temperature Precipitation Wind Pressure Humidity
    00:00 +26°C° 0 mm 3 mps 759 mmHg 70%
    01:00 +25°C° 0 mm 3 mps 759 mmHg 67%
    02:00 +25°C° 0 mm 2 mps 759 mmHg 64%
    03:00 +25°C° 0 mm 2 mps 759 mmHg 63%
    04:00 +25°C° 0 mm 2 mps 759 mmHg 61%
    05:00 +24°C° 0 mm 2 mps 759 mmHg 59%
    06:00 +25°C° 0 mm 2 mps 760 mmHg 57%
    07:00 +26°C° 0 mm 2 mps 760 mmHg 55%
    08:00 +27°C° 0 mm 2 mps 761 mmHg 53%
    09:00 +29°C° 0 mm 2 mps 761 mmHg 47%
    10:00 +31°C° 0 mm 1 mps 761 mmHg 42%
    11:00 +34°C° 0 mm 1 mps 760 mmHg 36%
    12:00 +35°C° 0 mm 2 mps 760 mmHg 37%
    13:00 +35°C° 0 mm 2 mps 759 mmHg 37%
    14:00 +34°C° 0 mm 3 mps 758 mmHg 38%
    15:00 +33°C° 0 mm 3 mps 758 mmHg 44%
    16:00 +31°C° 0 mm 3 mps 758 mmHg 51%
    17:00 +29°C° 0 mm 3 mps 757 mmHg 57%
    18:00 +28°C° 0 mm 3 mps 758 mmHg 61%
    19:00 +27°C° 0 mm 3 mps 758 mmHg 65%
    20:00 +26°C° 0 mm 3 mps 759 mmHg 69%
    21:00 +26°C° 0 mm 2 mps 759 mmHg 70%
    22:00 +26°C° 0 mm 2 mps 759 mmHg 71%
    23:00 +25°C° 0 mm 2 mps 759 mmHg 72%

    20 December, Friday

    Time Temperature Precipitation Wind Pressure Humidity
    00:00 +25°C° 0 mm 2 mps 758 mmHg 70%
    01:00 +25°C° 0 mm 2 mps 758 mmHg 69%
    02:00 +25°C° 0 mm 2 mps 758 mmHg 67%
    03:00 +24°C° 0 mm 2 mps 758 mmHg 65%
    04:00 +24°C° 0 mm 2 mps 758 mmHg 64%
    05:00 +24°C° 0 mm 2 mps 758 mmHg 62%
    06:00 +25°C° 0 mm 2 mps 758 mmHg 59%
    07:00 +26°C° 0 mm 2 mps 758 mmHg 57%
    08:00 +26°C° 0 mm 2 mps 759 mmHg 54%
    09:00 +29°C° 0 mm 2 mps 759 mmHg 48%
    10:00 +31°C° 0 mm 1 mps 759 mmHg 41%
    11:00 +34°C° 0 mm 1 mps 759 mmHg 35%
    12:00 +35°C° 0 mm 2 mps 758 mmHg 36%
    13:00 +35°C° 0 mm 3 mps 757 mmHg 36%
    14:00 +35°C° 0 mm 3 mps 756 mmHg 37%
    15:00 +33°C° 0 mm 3 mps 756 mmHg 44%
    16:00 +31°C° 0 mm 3 mps 756 mmHg 50%
    17:00 +29°C° 0 mm 3 mps 756 mmHg 57%
    18:00 +28°C° 0 mm 3 mps 757 mmHg 61%
    19:00 +27°C° 0 mm 2 mps 757 mmHg 66%
    20:00 +26°C° 0 mm 2 mps 758 mmHg 70%
    21:00 +26°C° 0 mm 2 mps 758 mmHg 70%
    22:00 +25°C° 0 mm 1 mps 758 mmHg 70%
    23:00 +25°C° 0 mm 1 mps 758 mmHg 70%
    Show more